Cloud_Cover
5 3 10 76 99 97 56 100 100 100 56 5 99 99 25 23 70 7 15 15 37 15 94 4 93 89 90 51 13 35 16 5 5
5 5 5 4 97 100 100 16 78 100 92 50 44 90 100 99 74 28 5 5 5 10 100 99 92 82 86 5 5 5 5 5 5
5 5 5 5 2 16 100 100 78 38 100 100 94 99 40 84 100 100 58 5 5 4 94 100 100 92 29 90 31 9 87 5 3
5 8 0 3 5 4 1 80 100 78 96 100 100 78 64 100 6 4 3 4 0 0 64 100 100 100 100 100 90 53 90 96 48
0 5 1 0 0 3 5 5 5 80 61 100 100 100 100 100 81 3 3 5 47 0 5 62 100 100 48 100 100 48 100 100 100
4 5 0 0 0 0 0 5 5 0 3 4 97 100 100 92 100 54 5 3 5 5 5 7 35 66 18 95 100 9 5 75 5
1 0 0 0 0 0 0 0 0 0 0 0 0 10 60 98 76 65 79 5 0 0 2 0 24 7 4 13 93 7 5 5 5
45 4 0 0 0 0 0 0 0 0 0 0 0 1 5 7 33 21 66 8 4 3 5 0 0 5 2 1 4 5 3 5 5
70 72 17 0 0 0 0 4 2 0 0 0 0 0 0 4 5 5 5 5 6 5 4 0 0 0 0 0 0 29 56 100 67
40 5 0 0 0 0 0 0 0 3 0 0 0 0 0 0 4 0 0 5 4 5 4 2 0 0 0 5 72 100 100 100 100
69 1 0 0 0 0 0 0 4 3 0 3 3 5 0 0 0 0 0 0 0 3 4 5 3 0 0 14 90 100 100 100 100
82 0 0 0 0 5 4 0 1 5 5 5 5 5 0 0 0 0 0 0 0 0 0 5 4 39 3 72 86 100 100 100 51
4 3 1 0 0 2 5 5 5 3 3 0 2 0 0 0 0 0 0 0 0 0 4 5 92 96 97 100 100 97 50 77 100
28 0 2 0 2 0 5 5 5 10 29 10 0 0 0 13 10 2 20 30 62 91 98 97 100 99 98 15 9 5 17 44 100
100 87 3 0 91 25 10 29 67 5 24 32 24 49 73 59 46 62 99 100 100 99 95 100 100 100 100 100 94 52 13 82 81
100 100 14 0 76 63 28 56 77 18 92 95 100 100 95 40 85 94 98 100 100 27 22 100 100 100 100 100 91 5 5 59 100
100 100 100 10 70 8 5 5 20 7 25 88 98 100 78 51 96 75 100 99 100 90 61 100 100 100 100 75 92 92 100 84 95
94 33 100 100 98 50 4 56 36 25 59 100 100 100 94 100 100 94 100 100 100 100 100 100 100 100 100 100 100 100 100 100 100
100 98 34 100 98 96 5 100 100 56 100 43 42 60 81 17 5 5 0 18 13 11 96 100 100 100 100 100 100 100 100 100 100
100 100 100 100 100 74 7 100 100 100 57 37 5 0 0 0 11 5 2 0 0 5 93 100 100 100 100 100 100 100 100 37 96